FW5260 Weather Reports


time (UTC)temp
C
wind
direction
speed
KPH
gust
KPH
rain 1hr
cm
rain 24hr
cm
rain mn
cm
humidity
%
barometer
mb
20260506210054 11 88 1.6 6.4 0.05 0.15 3.00 97 1009.6
20260506205817 11 151 4.8 9.7 0.05 0.15 3.00 97 1009.8
20260506205542 11 13 0.0 9.7 0.05 0.15 3.00 97 1009.7
20260506204557 11 163 3.2 8.0 0.05 0.15 3.00 97 1009.7
20260506204054 11 6 0.0 6.4 0.05 0.15 3.00 97 1009.6
20260506203556 11 258 1.6 4.8 0.05 0.15 3.00 97 1009.6
20260506203549 11 266 3.2 3.2 0.00 0.10 2.97 97 1009.8
20260506203318 11 224 0.0 3.2 0.00 0.10 2.97 97 1009.7
20260506202054 11 243 0.0 4.8 0.00 0.10 2.97 96 1009.7
20260506201815 11 116 0.0 4.8 0.00 0.10 2.97 96 1009.7
20260506201547 11 171 3.2 6.4 0.00 0.10 2.97 96 1009.6
20260506200556 11 162 1.6 6.4 0.00 0.10 2.97 96 1009.5
20260506200055 11 290 4.8 6.4 0.00 0.10 2.97 95 1009.4
20260506195814 11 4 4.8 6.4 0.00 0.10 2.97 95 1009.0
20260506195535 11 324 3.2 8.0 0.00 0.10 2.97 94 1009.2
20260506194557 11 277 1.6 8.0 0.00 0.10 2.97 93 1009.0
20260506194053 12 15 1.6 6.4 0.00 0.10 2.97 93 1008.8
20260506193556 11 237 1.6 8.0 0.00 0.10 2.97 93 1008.8
20260506193549 11 107 3.2 8.0 0.00 0.10 2.97 93 1008.8
20260506193257 12 5 1.6 9.7 0.00 0.10 2.97 93 1008.7
20260506192053 12 22 6.4 9.7 0.00 0.10 2.97 93 1008.6
20260506191555 11 306 4.8 8.0 0.00 0.10 2.97 94 1008.5
20260506191053 11 203 3.2 8.0 0.00 0.10 2.97 95 1008.7
20260506190555 11 267 3.2 8.0 0.00 0.10 2.97 96 1008.6
20260506190053 11 177 0.0 6.4 0.00 0.10 2.97 97 1008.3
20260506185814 11 350 6.4 8.0 0.00 0.10 2.97 97 1008.2
20260506185319 11 201 0.0 8.0 0.03 0.10 2.97 97 1007.9
20260506184559 11 221 1.6 6.4 0.05 0.10 2.97 97 1007.9
20260506184317 11 300 1.6 4.8 0.10 0.10 2.97 97 1007.9
20260506183555 11 238 3.2 4.8 0.10 0.10 2.97 96 1007.9
20260506183053 11 137 0.0 9.7 0.10 0.10 2.97 96 1007.9
20260506182558 11 319 3.2 9.7 0.10 0.10 2.97 96 1007.6
20260506182053 11 267 4.8 8.0 0.10 0.10 2.97 96 1007.6
20260506182039 11 246 0.0 8.0 0.10 0.10 2.97 95 1007.6
20260506181053 11 255 8.0 8.0 0.10 0.10 2.97 93 1007.9
20260506181007 12 232 3.2 8.0 0.10 0.10 2.97 90 1006.9
20260506180901 12 185 3.2 4.8 0.10 0.10 2.97 92 1007.6
20260506180054 12 59 1.6 6.4 0.10 0.10 2.97 91 1007.3
20260506175053 12 199 1.6 8.0 0.08 0.08 2.95 89 1007.0
20260506174556 13 331 3.2 8.0 0.05 0.05 2.95 85 1007.0
20260506174057 13 158 1.6 6.4 0.00 0.00 2.87 82 1007.1
20260506173555 13 17 1.6 4.8 0.00 0.00 2.87 84 1007.1
20260506173053 13 233 0.0 6.4 0.00 0.00 2.87 82 1006.9
20260506172827 13 289 3.2 8.0 0.00 0.00 2.87 81 1006.9
20260506172310 13 145 3.2 8.0 0.00 0.00 2.87 79 1006.9
20260506171555 13 20 3.2 11.3 0.00 0.00 2.87 79 1006.8
20260506171320 13 180 1.6 11.3 0.00 0.00 2.87 78 1006.6
20260506170823 13 263 1.6 11.3 0.00 0.00 2.87 76 1006.5
20260506170053 14 251 3.2 11.3 0.00 0.00 2.87 77 1006.4
20260506165817 14 249 3.2 11.3 0.00 0.00 2.87 76 1006.3
20260506165320 14 138 6.4 11.3 0.00 0.00 2.87 77 1006.3
20260506164557 14 325 6.4 11.3 0.00 0.00 2.87 76 1006.3
20260506164053 14 244 4.8 9.7 0.00 0.00 2.87 76 1006.3
20260506164044 14 253 3.2 12.9 0.00 0.00 2.87 76 1006.0
20260506163054 14 307 6.4 12.9 0.00 0.00 2.87 75 1006.2
20260506162818 14 25 3.2 14.5 0.00 0.00 2.87 76 1006.3
20260506162054 13 20 3.2 14.5 0.00 0.00 2.87 76 1006.2
20260506161820 14 200 3.2 11.3 0.00 0.00 2.87 78 1006.1
20260506161052 14 78 9.7 17.7 0.00 0.00 2.87 77 1006.1
20260506161043 13 249 4.8 17.7 0.00 0.00 2.87 77 1006.0
20260506160053 13 258 3.2 12.9 0.00 0.00 2.87 78 1006.0
20260506155555 13 247 3.2 12.9 0.00 0.00 2.87 79 1006.0
20260506155053 13 348 3.2 17.7 0.00 0.00 2.87 79 1006.1
20260506154559 13 177 6.4 17.7 0.00 0.00 2.87 80 1006.1
20260506154056 13 202 4.8 17.7 0.00 0.00 2.87 78 1006.3
20260506154018 13 299 8.0 16.1 0.00 0.00 2.87 78 1005.9
20260506153555 13 346 4.8 12.9 0.00 0.00 2.87 79 1006.1
20260506152553 13 314 6.4 19.3 0.00 0.00 2.87 79 1006.1
20260506152053 13 77 6.4 19.3 0.00 0.00 2.87 78 1006.1
20260506151553 13 228 4.8 16.1 0.00 0.00 2.87 74 1007.1
20260506151057 14 147 3.2 19.3 0.00 0.00 2.87 73 1007.2
20260506150554 14 174 3.2 19.3 0.00 0.00 2.87 73 1007.2
20260506150051 14 10 6.4 12.9 0.00 0.00 2.87 73 1007.2
20260506145552 14 327 1.6 17.7 0.00 0.00 2.87 73 1007.2
20260506145545 14 219 1.6 17.7 0.00 0.00 2.87 73 1007.2
20260506144519 15 61 1.6 0.0 0.00 0.00 2.87 72 1007.2
20260506144129 15 57 1.6 9.7 0.00 0.00 2.87 73 1007.2
20260506143629 14 150 1.6 14.5 0.00 0.00 2.87 75 1007.3
20260506143128 14 314 1.6 14.5 0.00 0.00 2.87 76 1007.3
20260506142629 14 236 1.6 12.9 0.00 0.00 2.87 75 1007.2
20260506142352 14 261 0.0 16.1 0.00 0.00 2.87 75 1007.2
20260506141629 14 133 0.0 16.1 0.00 0.00 2.87 76 1007.1
20260506141128 14 191 1.6 11.3 0.00 0.00 2.87 76 1007.0
20260506140626 14 127 1.6 11.3 0.00 0.00 2.87 76 1007.1
20260506140611 14 277 0.0 8.0 0.00 0.00 2.87 77 1007.2
20260506135626 14 320 1.6 14.5 0.00 0.00 2.87 78 1007.1
20260506135618 14 297 1.6 14.5 0.00 0.00 2.87 79 1007.2
20260506134627 14 289 1.6 9.7 0.00 0.00 2.87 80 1007.3
20260506134349 13 328 1.6 9.7 0.00 0.00 2.87 79 1007.4
20260506133709 13 39 1.6 0.0 0.00 0.00 2.87 78 1007.5
20260506133443 14 39 1.6 0.0 0.00 0.00 2.87 78 1007.5
20260506133224 14 39 1.6 0.0 0.00 0.00 2.87 78 1007.5
20260506132817 14 311 1.6 11.3 0.00 2.87 2.87 80 1007.6
20260506132320 14 41 1.6 11.3 0.00 2.87 2.87 80 1007.5
20260506131545 13 328 0.0 6.4 0.00 2.87 2.87 85 1007.6
20260506131041 13 352 0.0 6.4 0.00 2.87 2.87 86 1007.6
20260506130319 13 328 0.0 4.8 0.00 2.87 2.87 87 1007.5
20260506130045 12 234 0.0 4.8 0.00 2.87 2.87 88 1007.5
20260506125319 12 168 0.0 0.0 0.03 2.87 2.87 89 1007.5
20260506124819 12 33 0.0 4.8 0.05 2.87 2.87 91 1007.4
20260506122816 11 25 0.0 0.0 2.39 2.87 2.87 93 1007.3
20260506122543 11 18 0.0 0.0 2.39 2.87 2.87 92 1007.4
20260506121819 10 104 1.6 16.1 2.39 2.87 2.87 93 1007.3
20260506121317 10 78 1.6 16.1 2.39 2.87 2.87 93 1007.2
20260506120816 10 53 0.0 9.7 2.39 2.87 2.87 93 1007.1
20260506120319 10 185 0.0 4.8 2.39 2.87 2.87 93 1006.8
20260506115816 10 69 0.0 3.2 2.39 2.87 2.87 93 1006.5
20260506115318 9 345 4.8 9.7 2.39 2.84 2.87 99 1006.4
20260506114318 8 307 3.2 12.9 2.11 2.49 2.51 98 1006.3
20260506114048 8 266 3.2 12.9 1.91 2.03 2.03 98 1008.1
20260506112537 13 294 3.2 9.7 0.46 0.46 0.46 99 1006.3
20260506111814 13 194 1.6 9.7 0.46 0.46 0.46 99 1006.3
20260506111538 13 182 3.2 8.0 0.46 0.46 0.46 99 1006.5
20260506110811 13 279 3.2 3.2 0.46 0.46 0.46 99 1006.3
20260506110537 13 327 0.0 8.0 0.46 0.46 0.46 99 1006.3
20260506105811 13 281 0.0 8.0 0.46 0.46 0.46 99 1006.4
20260506104814 13 156 4.8 9.7 0.43 0.43 0.43 98 1006.5
20260506104540 13 159 3.2 14.5 0.41 0.41 0.41 97 1006.3
20260506103811 13 170 8.0 14.5 0.13 0.13 0.20 96 1006.6
20260506103537 13 129 4.8 22.5 0.00 0.00 0.00 94 1006.3
20260506102811 13 157 9.7 22.5 0.00 0.00 0.00 93 1006.3
20260506102537 13 173 11.3 22.5 0.00 0.00 0.00 93 1006.1
20260506101313 13 182 8.0 20.9 0.00 0.00 0.00 93 1006.5
20260506101035 13 56 3.2 17.7 0.00 0.00 0.00 93 1006.3
20260506100312 13 167 3.2 17.7 0.00 0.00 0.00 93 1006.6
20260506095811 13 157 12.9 17.7 0.00 0.00 0.00 94 1006.5
20260506094811 13 158 12.9 22.5 0.00 0.00 0.00 94 1006.7
20260506094540 13 116 8.0 22.5 0.00 0.00 0.00 94 1006.5
20260506093313 13 190 4.8 14.5 0.00 0.00 0.00 95 1006.4
20260506092811 13 176 6.4 14.5 0.00 0.00 0.00 95 1006.5
20260506091810 13 157 9.7 14.5 0.00 0.00 0.00 95 1006.7
20260506091315 13 158 9.7 12.9 0.00 0.00 0.00 96 1006.5
20260506091029 13 177 4.8 19.3 0.00 0.00 0.00 96 1006.6
20260506090312 13 47 4.8 19.3 0.00 0.00 0.00 95 1006.6
20260506085811 13 161 11.3 16.1 0.00 0.00 0.00 95 1006.5
20260506085529 13 158 6.4 16.1 0.00 0.00 0.00 95 1006.5
20260506085038 13 202 8.0 17.7 0.00 0.00 0.00 96 1006.4
20260506084323 13 180 6.4 20.9 0.00 0.00 0.00 95 1006.4
20260506083814 12 189 12.9 17.7 0.00 0.00 0.00 96 1006.6
20260506083313 12 159 8.0 14.5 0.00 0.00 0.00 97 1006.6
20260506082811 13 180 9.7 20.9 0.00 0.00 0.00 97 1006.6
20260506082312 12 169 6.4 20.9 0.00 0.00 0.00 97 1006.7
20260506081814 12 172 9.7 20.9 0.00 0.00 0.00 98 1006.8
20260506081536 12 159 6.4 19.3 0.00 0.00 0.00 99 1006.5
20260506080810 12 158 16.1 19.3 0.00 0.00 0.00 99 1006.7
20260506080315 12 198 4.8 9.7 0.00 0.00 0.00 99 1006.3
20260506073312 12 176 1.6 6.4 0.00 0.00 0.00 99 1006.8
20260506072533 12 120 1.6 6.4 0.00 0.00 0.00 99 1007.1
20260506071313 12 178 3.2 6.4 0.00 0.00 0.00 98 1007.1
20260506070534 12 207 4.8 9.7 0.00 0.00 0.00 98 1007.1
20260506062036 12 183 3.2 6.4 0.00 0.00 0.00 99 1007.1
20260506061313 12 210 4.8 6.4 0.00 0.00 0.00 99 1007.3
20260506061033 12 185 3.2 8.0 0.00 0.00 0.00 99 1007.1
20260506051315 11 259 3.2 6.4 0.00 0.00 0.00 99 1007.2
20260506050810 11 283 6.4 6.4 0.00 0.00 0.00 99 1007.5
20260506044811 11 321 3.2 6.4 0.00 0.00 0.00 99 1007.8
20260506044312 11 287 3.2 6.4 0.00 0.00 0.00 99 1007.9
20260506044038 11 268 3.2 8.0 0.00 0.00 0.00 99 1007.6
20260506043529 11 275 3.2 8.0 0.00 0.00 0.00 99 1007.9
20260506042811 11 312 4.8 6.4 0.00 0.03 0.00 99 1007.5
20260506042315 11 276 1.6 6.4 0.00 0.03 0.00 99 1007.9
20260506041811 11 129 1.6 6.4 0.00 0.03 0.00 99 1007.9
20260506041312 11 268 1.6 6.4 0.00 0.05 0.00 99 1007.9
20260506041032 11 333 1.6 6.4 0.00 0.05 0.00 99 1007.8
20260506040530 11 246 6.4 6.4 0.00 0.05 0.00 99 1008.0
20260506040039 11 70 0.0 6.4 0.00 0.05 0.00 99 1007.9
20260506034312 11 202 1.6 6.4 0.00 0.05 0.00 99 1008.0
20260506034032 11 296 3.2 6.4 0.00 0.05 0.00 99 1007.8
20260506033312 11 2 1.6 6.4 0.00 0.05 0.00 99 1008.2
20260506032810 11 326 3.2 6.4 0.00 0.05 0.00 99 1008.0
20260506032315 11 269 3.2 6.4 0.00 0.05 0.00 99 1008.1
20260506031814 11 254 0.0 6.4 0.00 0.05 0.00 99 1008.3
20260506031312 11 174 3.2 6.4 0.00 0.05 0.00 99 1008.1
20260506030811 11 245 3.2 4.8 0.00 0.05 0.00 99 1008.4
20260506030312 11 275 3.2 6.4 0.00 0.05 0.00 99 1008.5
20260506025811 11 269 3.2 6.4 0.00 0.05 0.00 99 1008.7
20260506025312 11 256 4.8 6.4 0.00 0.05 0.00 99 1008.7
20260506024810 11 282 3.2 4.8 0.00 0.05 0.00 99 1008.9
20260506024312 11 299 3.2 4.8 0.00 0.05 0.00 99 1009.0
20260506023811 11 269 0.0 4.8 0.00 0.05 0.00 99 1009.0
20260506023312 11 317 1.6 4.8 0.00 0.05 0.00 99 1009.1
20260506023028 11 244 3.2 6.4 0.00 0.05 0.00 99 1009.0
20260506022312 11 262 3.2 6.4 0.00 0.05 0.00 99 1009.3
20260506021814 11 304 3.2 6.4 0.00 0.05 0.00 99 1009.4
20260506021532 11 236 1.6 6.4 0.00 0.05 0.00 99 1009.3
20260506021036 11 288 3.2 6.4 0.00 0.05 0.00 99 1009.2
20260506020312 11 251 3.2 4.8 0.00 0.05 0.00 99 1009.2
20260506015312 11 281 3.2 4.8 0.00 0.05 0.00 99 1009.2
20260506014811 11 289 3.2 4.8 0.00 0.05 0.00 99 1009.4
20260506014312 11 275 3.2 4.8 0.00 0.05 0.00 99 1009.4
20260506014032 11 264 3.2 4.8 0.00 0.05 0.00 99 1009.4
20260506013312 11 237 3.2 4.8 0.00 0.05 0.00 99 1009.3
20260506012532 11 263 3.2 6.4 0.00 0.05 0.00 99 1009.2
20260506011312 11 267 3.2 4.8 0.00 0.05 0.00 99 1009.6
20260506010811 11 281 3.2 4.8 0.00 0.05 0.00 99 1009.6
20260506005312 11 259 3.2 6.4 0.00 0.05 0.00 99 1009.9
20260506004811 11 246 1.6 6.4 0.00 0.05 0.00 99 1010.0
20260506004312 11 242 0.0 4.8 0.00 0.05 0.00 99 1009.9
20260506004036 11 283 3.2 4.8 0.00 0.05 0.00 99 1010.2
20260506003312 11 260 0.0 4.8 0.00 0.05 0.00 99 1010.2
20260506003037 11 255 3.2 4.8 0.00 0.05 0.00 99 1010.1
20260506001811 11 254 3.2 6.4 0.00 0.05 0.00 99 1010.1
20260506001313 11 269 3.2 6.4 0.00 0.05 0.00 99 1010.3
20260506000539 11 276 3.2 4.8 0.00 0.05 0.00 99 1010.2
20260505235532 11 268 3.2 6.4 0.00 0.05 0.00 99 1010.2
20260505234813 11 240 1.6 6.4 0.00 0.05 0.00 99 1010.3
20260505234316 11 316 0.0 6.4 0.00 0.05 0.00 99 1010.4
20260505233809 11 204 3.2 6.4 0.00 0.05 0.00 99 1010.5
20260505233536 11 286 1.6 6.4 0.00 0.05 0.00 99 1010.4
20260505232311 11 299 3.2 4.8 0.00 0.05 0.00 99 1010.5
20260505231809 11 279 1.6 3.2 0.00 0.05 0.00 99 1010.5
20260505231311 11 275 0.0 3.2 0.00 0.05 0.00 99 1010.6
20260505231032 11 256 0.0 3.2 0.00 0.05 0.00 99 1010.6
20260505230311 11 267 0.0 3.2 0.00 0.05 0.00 99 1010.8
20260505230031 11 272 1.6 4.8 0.00 0.05 0.00 99 1010.9
20260505225534 11 290 3.2 6.4 0.00 0.05 0.00 99 1010.9
20260505224810 11 315 1.6 6.4 0.00 0.05 0.00 99 1010.9
20260505224311 11 280 1.6 6.4 0.00 0.05 0.00 99 1011.1
20260505223810 11 279 1.6 4.8 0.00 0.05 0.00 99 1010.9
20260505223530 11 249 1.6 4.8 0.00 0.05 0.00 99 1010.9
20260505223035 11 282 0.0 6.4 0.00 0.05 0.00 99 1011.1
20260505222530 11 285 1.6 6.4 0.00 0.05 0.00 99 1011.1
20260505221813 11 245 0.0 6.4 0.00 0.05 0.00 99 1010.9
20260505215810 11 240 0.0 4.8 0.00 0.05 0.05 99 1011.0
20260505215540 11 204 1.6 4.8 0.00 0.05 0.05 99 1011.1
20260505215031 11 250 3.2 4.8 0.00 0.05 0.05 99 1011.2
20260505213809 11 278 1.6 4.8 0.00 0.05 0.05 99 1011.2
20260505213312 11 261 3.2 4.8 0.00 0.05 0.05 99 1011.4
20260505212813 11 262 0.0 4.8 0.00 0.05 0.05 99 1011.6
20260505212532 11 275 3.2 4.8 0.00 0.05 0.05 99 1011.5
20260505212041 11 259 3.2 4.8 0.00 0.05 0.05 99 1011.6
20260505211534 11 246 3.2 4.8 0.00 0.05 0.05 99 1011.9
20260505211035 11 102 0.0 4.8 0.00 0.05 0.05 99 1011.8
20260505210312 11 98 0.0 4.8 0.00 0.05 0.05 99 1011.7